Preview of NWS' New Version of Forecast
This preview is not operational and should not be used for support decisions.

Regional Weather Roundup (RWR)

Issued by National Weather Service (NWS)

                            
000
ASPQ40 PGUM 240410
RWRPQ 
WEATHER ROUNDUP FOR THE MARIANAS AND MICRONESIA
NATIONAL WEATHER SERVICE TIYAN GU
200 PM CHST MON JUN 24 2019

GUZ001>004-240500-
MARIANA ISLANDS-
  
CITY           SKY/WX    TMP DP  RH WIND       PRES   REMARKS
GUAM AIRPORT   MOSUNNY   90  73  58 E16G25    29.89F HX  98           
ANDERSEN AFB   PTSUNNY   84  77  79 E15       29.90F HX  94           
ROTA AIRPORT   PTSUNNY   82  77  83 E16       29.89F HX  91           
TINIAN AP      PTSUNNY   91  75  59 E16       29.88F HX 102           
SAIPAN AP      SUNNY     90  75  62 E18       29.89F HX 100           

$$

PMZ161-240500-
REPUBLIC OF PALAU-
  
CITY           SKY/WX    TMP DP  RH WIND       PRES   REMARKS
KOROR AP       PTSUNNY   86  75  70 SW8       29.83  HX  95           
KOROR WSO      NOT AVBL                                               

$$

PMZ171>174-240500-
FEDERATED STATES OF MICRONESIA-
  
CITY           SKY/WX    TMP DP  RH WIND       PRES   REMARKS
YAP AIRPORT    LGT RAIN  84  79  84 VRB3      29.84F HX  96           
CHUUK AP       CLOUDY    84  79  84 NE10      29.82S HX  96           
POHNPEI AP     CLOUDY    84  77  79 E8        29.81F HX  94           
POHNPEI WSO    CLOUDY    84  79  84 SE10G22   29.84F HX  96           
KOSRAE AP      NOT AVBL                                               

$$

PMZ181-240500-
REPUBLIC OF THE MARSHALL ISLANDS-
  
CITY           SKY/WX    TMP DP  RH WIND       PRES   REMARKS
KWAJALEIN AP   CLOUDY    84  79  84 NE8G16    29.83F HX  96           
MAJURO AP      LGT RAIN  81  77  89 SW6       29.83S                  
MAJURO WSO     LGT RAIN  79  75  89 NW3       29.82S                  

$$